• MPC Preparation (Info)

  • MPEC 2014-O39 : 2010 UK8

    The following Minor Planet Electronic Circular may be linked-to from your own Web pages, but must not otherwise be redistributed electronically.

    A form allowing access to any MPEC is at the bottom of this page.


    Read MPEC 2014-O38 Read MPEC 2014-O40


    M.P.E.C. 2014-O39                                Issued 2014 July 26, 14:32 UT
    
         The Minor Planet Electronic Circulars contain information on unusual
             minor planets and routine data on comets.  They are published
       on behalf of Commission 20 of the International Astronomical Union by the
              Minor Planet Center, Smithsonian Astrophysical Observatory,
                              Cambridge, MA 02138, U.S.A.
    
                 Prepared using the Tamkin Foundation Computer Network
    
                                  MPC@CFA.HARVARD.EDU
                URL https://www.minorplanetcenter.net/    ISSN 1523-6714
    
                                       2010 UK8
    
                               Revision to MPEC 2010-V14
    
    Additional Observations:
         K10U08K 2C2014 07 25.24644114 23 11.087-16 57 43.44         22.1 RtEO039568
         K10U08K 2C2014 07 25.24838814 23 11.437-16 57 45.05         22.1 RtEO039568
         K10U08K 2C2014 07 25.25033614 23 11.778-16 57 46.69         22.3 RtEO039568
         K10U08K 2C2014 07 25.25232114 23 12.139-16 57 48.30         22.2 RtEO039568
         K10U08K 2C2014 07 25.25426814 23 12.496-16 57 49.96         22.1 RtEO039568
         K10U08K 2C2014 07 25.25621514 23 12.847-16 57 51.58         22.3 RtEO039568
         K10U08K 2C2014 07 25.25819114 23 13.194-16 57 53.21         22.2 RtEO039568
         K10U08K 2C2014 07 26.24657914 26 12.934-17 11 23.85         22.2 RtEO039568
         K10U08K 2C2014 07 26.24852614 26 13.281-17 11 25.42         22.1 RtEO039568
         K10U08K 2C2014 07 26.25047414 26 13.631-17 11 26.98         22.2 RtEO039568
         K10U08K 2C2014 07 26.25245514 26 13.978-17 11 28.57         22.1 RtEO039568
         K10U08K 2C2014 07 26.25440314 26 14.322-17 11 30.14         22.1 RtEO039568
         K10U08K 2C2014 07 26.25635214 26 14.670-17 11 31.71         22.1 RtEO039568
    
    Observer details:
    568 Mauna Kea.  Observer P. Forshay.  Measurer D. J. Tholen.  3.6-m
        Canada-France-Hawaii Telescope.
    
    First and last observations above in comparison with prediction:
    Residuals in seconds of arc (or two decimals in degrees), reference and Delta-T
    140725 568 0.22- 0.08+    140726 568 0.21- 0.08+    MPO190736   +0.27 day
    
    Orbital elements:
    2010 UK8                                            PHA, Earth MOID = 0.0198 AU
    Epoch 2014 May 23.0 TT = JDT 2456800.5                  MPC
    M   9.25154              (2000.0)            P               Q
    n   0.30530139     Peri.  135.40843     -0.83818571     -0.54534585
    a   2.1843230      Node    11.54845     +0.49083272     -0.75951060
    e   0.7005574      Incl.    1.86884     +0.23775611     -0.35460055
    P   3.23           H   19.9           G   0.15           U   2
    Residuals in seconds of arc
    101031 G96  0.2+  0.3-    101103 704  0.7+  0.5+    101114 448  0.1-  0.2-
    101031 G96  0.2-  0.5-    101103 704  0.3+  0.3-    101115 291  0.0   0.2+
    101031 G96  0.5+  0.3-    101103 704  0.5+  0.1+    101115 291  0.4-  0.0
    101031 G96  0.0   0.3-    101103 704  0.9+  0.8+    101115 291  0.3-  0.1+
    101031 H21  0.2-  0.1-    101104 704  0.4+  0.3+    101124 H21  0.0   0.1+
    101031 H21  0.1+  0.7+    101104 704  0.9+  0.8+    101124 H21  0.4-  0.1-
    101031 H21  0.2-  0.2+    101104 704  0.5-  0.1+    101124 H21  0.2-  0.1+
    101031 G96  0.2+  0.3-    101104 704  0.2+  0.6+    101124 H21  0.1-  0.2-
    101031 G96  0.1+  0.2-    101104 704  0.7-  1.2+    101201 291  1.1+  0.4+
    101031 G96  0.1+  0.5-    101104 704  0.4+  0.6-    101201 291  0.1-  0.2-
    101031 G96  0.1+  0.2-    101104 587  0.3-  0.7+    101201 291  0.5-  0.2-
    101031 J04  0.2-  0.1-    101104 587  0.0   0.0     101204 703  0.9-  0.2-
    101031 J04  0.1-  0.0     101104 587  0.4-  0.3-    101204 703  0.4-  0.4+
    101031 J04  0.1-  0.1-    101104 204  0.0   0.2-    101204 703  0.2+  0.1+
    101102 H26  0.8+  0.5-    101104 204  0.2+  0.3-    101204 703  0.1-  1.2+
    101102 H26  0.6+  0.4+    101104 204  0.2+  0.6-    101206 704  1.0+  1.3+
    101102 H26  1.2-  0.8+    101106 704 (0.3+  1.5+)   101206 704  0.7+  0.3+
    101102 H26  0.8-  0.6+    101106 H36  0.0   0.7-    101206 704  0.4+  0.3+
    101102 673  0.6+  0.3-    101106 704  0.9+  0.6+    101206 704  1.0+  1.0+
    101102 673  0.4-  0.4-    101106 H36  0.2+  0.4-    101208 448  0.7-  0.7-
    101102 704  0.7-  0.3-    101106 H36  0.3+  0.6-    101208 448  0.1-  0.2+
    101102 704  0.4-  1.4+    101106 704  0.6+  0.7+    101208 448  0.6-  0.8-
    101102 704  0.0   1.1-    101106 704  0.7+  0.2+    101225 291  0.6-  0.6-
    101102 291  0.1-  0.2-    101106 704  1.0-  0.3+    101225 291  0.0   0.1-
    101102 291  0.6-  0.2-    101107 H21  0.2-  0.2-    101225 291  0.5+  0.3+
    101102 854 (2.9+  0.4+)   101107 H21  0.2-  0.2-    140725 568  0.0   0.0
    101102 291  0.2-  0.2-    101107 H21  0.3-  0.2-    140725 568  0.0   0.0
    101102 704  0.7+  0.1+    101110 291  0.3-  0.2-    140725 568  0.1-  0.0
    101102 854  0.5+  0.1+    101110 291  0.2-  0.0     140725 568  0.1-  0.0
    101102 854  1.2+  0.6+    101110 291  0.2-  0.1-    140725 568  0.0   0.0
    101102 H01  0.3-  0.0     101111 291  0.2-  0.1-    140725 568  0.0   0.0
    101102 H01  0.2-  0.0     101111 291  0.2-  0.1+    140725 568  0.1-  0.0
    101102 H01  0.3-  0.0     101111 291  0.6-  0.0     140726 568  0.0   0.0
    101102 H01  0.5-  0.1-    101111 703  1.4+  0.4-    140726 568  0.0   0.0
    101103 703  0.1+  0.7+    101111 703  0.4+  0.5-    140726 568  0.1+  0.0
    101103 703  0.9-  0.5+    101111 703  0.0   0.3-    140726 568  0.0   0.0
    101103 703 (1.5-  1.2+)   101114 448  0.1+  0.1+    140726 568  0.0   0.0
    101103 704  0.1+  0.9-    101114 448  0.6+  0.8-    140726 568  0.1+  0.0
    
    Ephemeris:
    2010 UK8                 a,e,i = 2.18, 0.70, 2                   q = 0.6541
    Date    TT    R. A. (2000) Decl.     Delta      r     Elong.  Phase     V
    2014 06 26    12 21 36.7 -05 31 46   0.6140  1.2148    93.0    56.7    21.3
    ...
    2014 07 11    13 33 37.9 -12 47 59   0.8073  1.3824    97.9    46.7    21.9
    ...
    2014 07 19    14 03 04.9 -15 22 09   0.9308  1.4692    97.9    43.2    22.3
    ...
    2014 07 25    14 22 25.9 -16 54 12   1.0301  1.5329    97.1    41.1    22.5
    2014 07 26    14 25 28.4 -17 07 58   1.0471  1.5434    96.9    40.8    22.5
    2014 07 27    14 28 28.1 -17 21 21   1.0642  1.5538    96.7    40.5    22.6
    ...
    2014 08 02    14 45 34.0 -18 34 05   1.1694  1.6159    95.2    38.7    22.8
    ...
    2014 08 10    15 06 26.7 -19 54 30   1.3150  1.6966    92.6    36.6    23.1
    ...
    2014 08 25    15 41 31.0 -21 48 33   1.6006  1.8419    86.6    33.2    23.6
    
    A. U. Tomatic                (C) Copyright 2014 MPC           M.P.E.C. 2014-O39
    

    Read MPEC 2014-O38 Read MPEC 2014-O40


    MPEC number:

    Enter an MPEC number in one of the following forms:

    • 1997-B01 (the full form)
    • J97B01 (the packed version of the full form)
    • B01 (the abbreviated form)